Chopin — ZDFE4 — position and weather

sailwx.info

Track history (hours):
 
Tides and Currents Weather Stations Pressure Air Temp Water Temp Dewpoint Dewpoint Depression Visibility Wind Speed Wind Dir Waves Ship Positions

Chopin

Last reported at 2014-Oct-23 21:34 UTC. Time now 2014-Oct-25 01:29 UTC.
Position N 54°20' W 005°19'.

Length 104 m; draft 6.7 m.

Type: Cargo ship. MMSI: 236099000.

Date/timePositionNaut miles runAvg speedWind from/ knotsBaromVisibWave heightAir tempDewpointWater temp
2014-Oct-23 21:34N 54°20' W 005°19'1010.0
2014-Oct-23 20:34N 54°30' W 005°21'1211.9
2014-Oct-23 19:34N 54°41' W 005°27'1010.1
2014-Oct-23 18:34N 54°42' W 005°45'7 1.7
2014-Oct-23 14:29N 54°37' W 005°54'0 0.0
2014-Oct-23 13:05N 54°37' W 005°54'0 0.0
2014-Oct-23 11:29N 54°37' W 005°54'0 0.0
2014-Oct-23 10:29N 54°37' W 005°54'0 0.0
2014-Oct-23 09:26N 54°37' W 005°54'0 0.0
2014-Oct-23 08:20N 54°37' W 005°54'0 0.0
2014-Oct-23 07:31N 54°37' W 005°54'0 0.0
2014-Oct-23 06:25N 54°37' W 005°54'0 0.0
2014-Oct-23 03:27N 54°37' W 005°54'0 0.0
2014-Oct-23 02:28N 54°37' W 005°54'0 0.0
2014-Oct-23 01:33N 54°37' W 005°54'2 2.0
2014-Oct-23 00:29N 54°39' W 005°52'8 8.1
2014-Oct-22 23:34N 54°43' W 005°40'5 5.3
2014-Oct-22 22:34N 54°43' W 005°31'9 9.2
2014-Oct-22 21:33N 54°35' W 005°25'1010.1
2014-Oct-22 20:33N 54°25' W 005°20'  
2014-Oct-20 09:31N 52°36' W 005°51'9 9.5
2014-Oct-20 08:32N 52°26' W 005°50'  
2014-Oct-16 09:31N 43°33' W 001°46'9 9.7
2014-Oct-16 08:34N 43°33' W 001°33'2 0.1
2014-Oct-15 06:18N 43°32' W 001°30'0 0.0
2014-Oct-15 04:23N 43°32' W 001°30'3 3.3
2014-Oct-15 03:33N 43°33' W 001°33'17 8.7
2014-Oct-15 01:33N 43°48' W 001°46'  
Track history (hours):
 
Tides and Currents Weather Stations Pressure Air Temp Water Temp Dewpoint Dewpoint Depression Visibility Wind Speed Wind Dir Waves Ship Positions

Chopin

Last reported at 2014-Oct-23 21:34 UTC. Time now 2014-Oct-25 01:29 UTC.
Position N 54°20' W 005°19'.

Length 104 m; draft 6.7 m.

Type: Cargo ship. MMSI: 236099000.

Date/timePositionNaut miles runAvg speedWind from/ knotsBaromVisibWave heightAir tempDewpointWater temp
2014-Oct-23 21:34N 54°20' W 005°19'1010.0
2014-Oct-23 20:34N 54°30' W 005°21'1211.9
2014-Oct-23 19:34N 54°41' W 005°27'1010.1
2014-Oct-23 18:34N 54°42' W 005°45'7 1.7
2014-Oct-23 14:29N 54°37' W 005°54'0 0.0
2014-Oct-23 13:05N 54°37' W 005°54'0 0.0
2014-Oct-23 11:29N 54°37' W 005°54'0 0.0
2014-Oct-23 10:29N 54°37' W 005°54'0 0.0
2014-Oct-23 09:26N 54°37' W 005°54'0 0.0
2014-Oct-23 08:20N 54°37' W 005°54'0 0.0
2014-Oct-23 07:31N 54°37' W 005°54'0 0.0
2014-Oct-23 06:25N 54°37' W 005°54'0 0.0
2014-Oct-23 03:27N 54°37' W 005°54'0 0.0
2014-Oct-23 02:28N 54°37' W 005°54'0 0.0
2014-Oct-23 01:33N 54°37' W 005°54'2 2.0
2014-Oct-23 00:29N 54°39' W 005°52'8 8.1
2014-Oct-22 23:34N 54°43' W 005°40'5 5.3
2014-Oct-22 22:34N 54°43' W 005°31'9 9.2
2014-Oct-22 21:33N 54°35' W 005°25'1010.1
2014-Oct-22 20:33N 54°25' W 005°20'  
2014-Oct-20 09:31N 52°36' W 005°51'9 9.5
2014-Oct-20 08:32N 52°26' W 005°50'  
2014-Oct-16 09:31N 43°33' W 001°46'9 9.7
2014-Oct-16 08:34N 43°33' W 001°33'2 0.1
2014-Oct-15 06:18N 43°32' W 001°30'0 0.0
2014-Oct-15 04:23N 43°32' W 001°30'3 3.3
2014-Oct-15 03:33N 43°33' W 001°33'17 8.7
2014-Oct-15 01:33N 43°48' W 001°46'  

Dump ship's entire track history